Time,TemperatureF,DewpointF,PressureIn,WindDirection,WindDirectionDegrees,WindSpeedMPH,WindSpeedGustMPH,Humidity,HourlyPrecipIn,Conditions,Clouds,dailyrainin,SoftwareType,DateUTC
2013-08-10 00:02:00,73.0,-99.9,29.78,WSW,252,9.0,-999.0,-999,-99.99,,,-99.99,,2013-08-10 04:02:00,
2013-08-10 00:22:00,73.0,-99.9,29.79,West,276,8.0,-999.0,-999,-99.99,,,-99.99,,2013-08-10 04:22:00,
2013-08-10 00:32:00,73.0,-99.9,29.79,West,276,8.0,-999.0,-999,-99.99,,,-99.99,,2013-08-10 04:32:00,
2013-08-10 00:53:00,73.0,-99.9,29.78,West,260,6.0,-999.0,-999,-99.99,,,-99.99,,2013-08-10 04:53:00,
2013-08-10 01:02:00,73.0,-99.9,29.78,West,260,6.0,-999.0,-999,-99.99,,,-99.99,,2013-08-10 05:02:00,
2013-08-10 01:11:00,73.0,-99.9,29.78,West,260,6.0,-999.0,-999,-99.99,,,-99.99,,2013-08-10 05:11:00,
2013-08-10 01:22:00,74.0,-99.9,29.77,NW,324,9.0,-999.0,-999,-99.99,,,-99.99,,2013-08-10 05:22:00,
2013-08-10 01:32:00,74.0,-99.9,29.77,NW,324,9.0,-999.0,-999,-99.99,,,-99.99,,2013-08-10 05:32:00,
2013-08-10 01:52:00,74.0,-99.9,29.77,West,268,9.0,-999.0,-999,-99.99,,,-99.99,,2013-08-10 05:52:00,
2013-08-10 02:02:00,74.0,-99.9,29.77,West,268,9.0,-999.0,-999,-99.99,,,-99.99,,2013-08-10 06:02:00,
2013-08-10 02:11:00,74.0,-99.9,29.77,West,268,9.0,-999.0,-999,-99.99,,,-99.99,,2013-08-10 06:11:00,
2013-08-10 02:22:00,74.0,-99.9,29.77,WNW,285,8.0,-999.0,-999,-99.99,,,-99.99,,2013-08-10 06:22:00,
2013-08-10 02:32:00,74.0,-99.9,29.77,WNW,285,8.0,-999.0,-999,-99.99,,,-99.99,,2013-08-10 06:32:00,
2013-08-10 02:53:00,74.0,-99.9,29.78,WNW,298,7.0,-999.0,-999,-99.99,,,-99.99,,2013-08-10 06:53:00,
2013-08-10 03:02:00,74.0,-99.9,29.78,WNW,298,7.0,-999.0,-999,-99.99,,,-99.99,,2013-08-10 07:02:00,
2013-08-10 03:22:00,74.0,-99.9,29.78,NW,306,10.0,-999.0,-999,-99.99,,,-99.99,,2013-08-10 07:22:00,
2013-08-10 03:33:00,74.0,-99.9,29.78,NW,306,10.0,-999.0,-999,-99.99,,,-99.99,,2013-08-10 07:33:00,
2013-08-10 03:43:00,74.0,-99.9,29.78,NW,306,10.0,-999.0,-999,-99.99,,,-99.99,,2013-08-10 07:43:00,
2013-08-10 03:52:00,74.0,-99.9,29.78,NW,309,9.0,-999.0,-999,-99.99,,,-99.99,,2013-08-10 07:52:00,
2013-08-10 04:02:00,74.0,-99.9,29.78,NW,309,9.0,-999.0,-999,-99.99,,,-99.99,,2013-08-10 08:02:00,
2013-08-10 04:12:00,74.0,-99.9,29.78,NW,309,9.0,-999.0,-999,-99.99,,,-99.99,,2013-08-10 08:12:00,
2013-08-10 04:32:00,74.0,-99.9,29.79,NW,311,9.0,-999.0,-999,-99.99,,,-99.99,,2013-08-10 08:32:00,
2013-08-10 04:53:00,74.0,-99.9,29.79,NNW,332,6.0,-999.0,-999,-99.99,,,-99.99,,2013-08-10 08:53:00,
2013-08-10 05:02:00,74.0,-99.9,29.79,NNW,332,6.0,-999.0,-999,-99.99,,,-99.99,,2013-08-10 09:02:00,
2013-08-10 05:22:00,74.0,-99.9,29.80,NW,309,9.0,-999.0,-999,-99.99,,,-99.99,,2013-08-10 09:22:00,
2013-08-10 05:32:00,74.0,-99.9,29.80,NW,309,9.0,-999.0,-999,-99.99,,,-99.99,,2013-08-10 09:32:00,
2013-08-10 05:43:00,74.0,-99.9,29.80,NW,309,9.0,-999.0,-999,-99.99,,,-99.99,,2013-08-10 09:43:00,
2013-08-10 05:52:00,74.0,-99.9,29.81,NW,326,7.0,-999.0,-999,-99.99,,,-99.99,,2013-08-10 09:52:00,
2013-08-10 06:02:00,74.0,-99.9,29.81,NW,326,7.0,-999.0,-999,-99.99,,,-99.99,,2013-08-10 10:02:00,
2013-08-10 06:11:00,74.0,-99.9,29.81,NW,326,7.0,-999.0,-999,-99.99,,,-99.99,,2013-08-10 10:11:00,
2013-08-10 06:22:00,73.0,-99.9,29.82,NNW,331,10.0,-999.0,-999,-99.99,,,-99.99,,2013-08-10 10:22:00,
2013-08-10 06:33:00,73.0,-99.9,29.82,NNW,331,10.0,-999.0,-999,-99.99,,,-99.99,,2013-08-10 10:33:00,
2013-08-10 06:53:00,72.0,-99.9,29.83,NW,326,8.0,-999.0,-999,-99.99,,,-99.99,,2013-08-10 10:53:00,
2013-08-10 07:02:00,72.0,-99.9,29.83,NW,326,8.0,-999.0,-999,-99.99,,,-99.99,,2013-08-10 11:02:00,
2013-08-10 07:12:00,72.0,-99.9,29.83,NW,326,8.0,-999.0,-999,-99.99,,,-99.99,,2013-08-10 11:12:00,
2013-08-10 07:22:00,73.0,-99.9,29.83,NNW,338,11.0,-999.0,-999,-99.99,,,-99.99,,2013-08-10 11:22:00,
2013-08-10 07:33:00,73.0,-99.9,29.83,NNW,338,11.0,-999.0,-999,-99.99,,,-99.99,,2013-08-10 11:33:00,
2013-08-10 07:43:00,73.0,-99.9,29.83,NNW,338,11.0,-999.0,-999,-99.99,,,-99.99,,2013-08-10 11:43:00,
2013-08-10 07:53:00,73.0,-99.9,29.85,NNW,347,10.0,-999.0,-999,-99.99,,,-99.99,,2013-08-10 11:53:00,
2013-08-10 08:01:00,73.0,-99.9,29.85,NNW,347,10.0,-999.0,-999,-99.99,,,-99.99,,2013-08-10 12:01:00,
2013-08-10 08:11:00,73.0,-99.9,29.85,NNW,347,10.0,-999.0,-999,-99.99,,,-99.99,,2013-08-10 12:11:00,
2013-08-10 08:22:00,74.0,-99.9,29.86,North,349,10.0,-999.0,-999,-99.99,,,-99.99,,2013-08-10 12:22:00,
2013-08-10 08:32:00,74.0,-99.9,29.86,North,349,10.0,-999.0,-999,-99.99,,,-99.99,,2013-08-10 12:32:00,
2013-08-10 08:42:00,74.0,-99.9,29.86,North,349,10.0,-999.0,-999,-99.99,,,-99.99,,2013-08-10 12:42:00,
2013-08-10 08:53:00,74.0,-99.9,29.86,NNW,337,11.0,-999.0,-999,-99.99,,,-99.99,,2013-08-10 12:53:00,
2013-08-10 09:01:00,74.0,-99.9,29.86,NNW,337,11.0,-999.0,-999,-99.99,,,-99.99,,2013-08-10 13:01:00,
2013-08-10 09:11:00,74.0,-99.9,29.86,NNW,337,11.0,-999.0,-999,-99.99,,,-99.99,,2013-08-10 13:11:00,
2013-08-10 09:32:00,75.0,-99.9,29.86,NNW,343,17.0,-999.0,-999,-99.99,,,-99.99,,2013-08-10 13:32:00,
2013-08-10 09:52:00,77.0,-99.9,29.85,North,6,17.0,-999.0,-999,-99.99,,,-99.99,,2013-08-10 13:52:00,
2013-08-10 10:02:00,77.0,-99.9,29.85,North,6,17.0,-999.0,-999,-99.99,,,-99.99,,2013-08-10 14:02:00,
2013-08-10 10:12:00,77.0,-99.9,29.85,North,6,17.0,-999.0,-999,-99.99,,,-99.99,,2013-08-10 14:12:00,
2013-08-10 10:22:00,77.0,-99.9,29.86,NNW,340,17.0,-999.0,-999,-99.99,,,-99.99,,2013-08-10 14:22:00,
2013-08-10 10:33:00,77.0,-99.9,29.86,NNW,340,17.0,-999.0,-999,-99.99,,,-99.99,,2013-08-10 14:33:00,
2013-08-10 10:53:00,78.0,-99.9,29.86,NNW,346,20.0,-999.0,-999,-99.99,,,-99.99,,2013-08-10 14:53:00,
2013-08-10 11:02:00,78.0,-99.9,29.86,NNW,346,20.0,-999.0,-999,-99.99,,,-99.99,,2013-08-10 15:02:00,
2013-08-10 11:22:00,78.0,-99.9,29.87,North,5,13.0,-999.0,-999,-99.99,,,-99.99,,2013-08-10 15:22:00,
2013-08-10 11:34:00,78.0,-99.9,29.87,North,5,13.0,-999.0,-999,-99.99,,,-99.99,,2013-08-10 15:34:00,
2013-08-10 11:43:00,78.0,-99.9,29.87,North,5,13.0,-999.0,-999,-99.99,,,-99.99,,2013-08-10 15:43:00,
2013-08-10 11:52:00,79.0,-99.9,29.87,North,5,12.0,-999.0,-999,-99.99,,,-99.99,,2013-08-10 15:52:00,
2013-08-10 12:02:00,79.0,-99.9,29.87,North,5,12.0,-999.0,-999,-99.99,,,-99.99,,2013-08-10 16:02:00,
2013-08-10 12:22:00,80.0,-99.9,29.87,NW,323,9.0,-999.0,-999,-99.99,,,-99.99,,2013-08-10 16:22:00,
2013-08-10 12:32:00,80.0,-99.9,29.87,NW,323,9.0,-999.0,-999,-99.99,,,-99.99,,2013-08-10 16:32:00,
2013-08-10 12:53:00,81.0,-99.9,29.86,NNW,338,6.0,-999.0,-999,-99.99,,,-99.99,,2013-08-10 16:53:00,
2013-08-10 13:02:00,81.0,-99.9,29.86,NNW,338,6.0,-999.0,-999,-99.99,,,-99.99,,2013-08-10 17:02:00,
2013-08-10 13:22:00,81.0,-99.9,29.87,NW,321,6.0,-999.0,-999,-99.99,,,-99.99,,2013-08-10 17:22:00,
2013-08-10 13:33:00,81.0,-99.9,29.87,NW,321,6.0,-999.0,-999,-99.99,,,-99.99,,2013-08-10 17:33:00,
2013-08-10 13:52:00,82.0,-99.9,29.87,East,97,2.0,-999.0,-999,-99.99,,,-99.99,,2013-08-10 17:52:00,
2013-08-10 14:01:00,82.0,-99.9,29.87,East,97,2.0,-999.0,-999,-99.99,,,-99.99,,2013-08-10 18:01:00,
2013-08-10 14:23:00,82.0,-99.9,29.87,WNW,283,12.0,-999.0,-999,-99.99,,,-99.99,,2013-08-10 18:23:00,
2013-08-10 14:32:00,82.0,-99.9,29.87,WNW,283,12.0,-999.0,-999,-99.99,,,-99.99,,2013-08-10 18:32:00,
2013-08-10 14:52:00,82.0,-99.9,29.86,NW,315,13.0,-999.0,-999,-99.99,,,-99.99,,2013-08-10 18:52:00,
2013-08-10 15:02:00,82.0,-99.9,29.86,NW,315,13.0,-999.0,-999,-99.99,,,-99.99,,2013-08-10 19:02:00,
2013-08-10 15:22:00,79.0,-99.9,29.86,SW,235,10.0,-999.0,-999,-99.99,,,-99.99,,2013-08-10 19:22:00,
2013-08-10 15:33:00,79.0,-99.9,29.86,SW,235,10.0,-999.0,-999,-99.99,,,-99.99,,2013-08-10 19:33:00,
2013-08-10 15:53:00,79.0,-99.9,29.86,WSW,258,15.0,-999.0,-999,-99.99,,,-99.99,,2013-08-10 19:53:00,
2013-08-10 16:02:00,79.0,-99.9,29.86,WSW,258,15.0,-999.0,-999,-99.99,,,-99.99,,2013-08-10 20:02:00,
2013-08-10 16:22:00,80.0,-99.9,29.87,WNW,283,11.0,-999.0,-999,-99.99,,,-99.99,,2013-08-10 20:22:00,
2013-08-10 16:33:00,80.0,-99.9,29.87,WNW,283,11.0,-999.0,-999,-99.99,,,-99.99,,2013-08-10 20:33:00,
2013-08-10 16:53:00,82.0,-99.9,29.88,NW,307,14.0,-999.0,-999,-99.99,,,-99.99,,2013-08-10 20:53:00,
2013-08-10 17:02:00,82.0,-99.9,29.88,NW,307,14.0,-999.0,-999,-99.99,,,-99.99,,2013-08-10 21:02:00,
2013-08-10 17:22:00,80.0,-99.9,29.87,West,278,10.0,-999.0,-999,-99.99,,,-99.99,,2013-08-10 21:22:00,
2013-08-10 17:32:00,80.0,-99.9,29.87,West,278,10.0,-999.0,-999,-99.99,,,-99.99,,2013-08-10 21:32:00,
2013-08-10 17:52:00,79.0,-99.9,29.87,West,266,12.0,-999.0,-999,-99.99,,,-99.99,,2013-08-10 21:52:00,
2013-08-10 18:02:00,79.0,-99.9,29.87,West,266,12.0,-999.0,-999,-99.99,,,-99.99,,2013-08-10 22:02:00,
2013-08-10 18:21:00,79.0,-99.9,29.88,West,271,12.0,-999.0,-999,-99.99,,,-99.99,,2013-08-10 22:21:00,
2013-08-10 18:32:00,79.0,-99.9,29.88,West,271,12.0,-999.0,-999,-99.99,,,-99.99,,2013-08-10 22:32:00,
2013-08-10 18:53:00,79.0,-99.9,29.88,WNW,286,12.0,-999.0,-999,-99.99,,,-99.99,,2013-08-10 22:53:00,
2013-08-10 19:02:00,79.0,-99.9,29.88,WNW,286,12.0,-999.0,-999,-99.99,,,-99.99,,2013-08-10 23:02:00,
2013-08-10 19:22:00,78.0,-99.9,29.89,West,281,8.0,-999.0,-999,-99.99,,,-99.99,,2013-08-10 23:22:00,
2013-08-10 19:33:00,78.0,-99.9,29.89,West,281,8.0,-999.0,-999,-99.99,,,-99.99,,2013-08-10 23:33:00,
2013-08-10 19:53:00,78.0,-99.9,29.90,NW,324,6.0,-999.0,-999,-99.99,,,-99.99,,2013-08-10 23:53:00,
2013-08-10 20:02:00,78.0,-99.9,29.90,NW,324,6.0,-999.0,-999,-99.99,,,-99.99,,2013-08-11 00:02:00,
2013-08-10 20:22:00,78.0,-99.9,29.91,NW,319,6.0,-999.0,-999,-99.99,,,-99.99,,2013-08-11 00:22:00,
2013-08-10 20:32:00,78.0,-99.9,29.91,NW,319,6.0,-999.0,-999,-99.99,,,-99.99,,2013-08-11 00:32:00,
2013-08-10 20:52:00,77.0,-99.9,29.92,NNW,336,9.0,-999.0,-999,-99.99,,,-99.99,,2013-08-11 00:52:00,
2013-08-10 21:02:00,77.0,-99.9,29.92,NNW,336,9.0,-999.0,-999,-99.99,,,-99.99,,2013-08-11 01:02:00,
2013-08-10 21:22:00,77.0,-99.9,29.94,NNW,328,8.0,-999.0,-999,-99.99,,,-99.99,,2013-08-11 01:22:00,
2013-08-10 21:32:00,77.0,-99.9,29.94,NNW,328,8.0,-999.0,-999,-99.99,,,-99.99,,2013-08-11 01:32:00,
2013-08-10 21:54:00,76.0,-99.9,29.94,NNW,340,12.0,-999.0,-999,-99.99,,,-99.99,,2013-08-11 01:54:00,
2013-08-10 22:02:00,76.0,-99.9,29.94,NNW,340,12.0,-999.0,-999,-99.99,,,-99.99,,2013-08-11 02:02:00,
2013-08-10 22:22:00,76.0,-99.9,29.95,NNW,344,11.0,-999.0,-999,-99.99,,,-99.99,,2013-08-11 02:22:00,
2013-08-10 22:32:00,76.0,-99.9,29.95,NNW,344,11.0,-999.0,-999,-99.99,,,-99.99,,2013-08-11 02:32:00,
2013-08-10 22:58:00,74.0,-99.9,29.96,NNW,335,9.0,-999.0,-999,-99.99,,,-99.99,,2013-08-11 02:58:00,
2013-08-10 23:07:00,74.0,-99.9,29.96,NNW,335,9.0,-999.0,-999,-99.99,,,-99.99,,2013-08-11 03:07:00,
2013-08-10 23:29:00,74.0,-99.9,29.96,North,353,12.0,-999.0,-999,-99.99,,,-99.99,,2013-08-11 03:29:00,
2013-08-10 23:36:00,74.0,-99.9,29.96,North,353,12.0,-999.0,-999,-99.99,,,-99.99,,2013-08-11 03:36:00,
2013-08-10 23:58:00,72.0,-99.9,29.97,NNW,331,11.0,-999.0,-999,-99.99,,,-99.99,,2013-08-11 03:58:00,